IRIDIUM 145

Last updated on Fri Sep 11 2026 00:03:06 GMT+0000 (Coordinated Universal Time)

1 43253U 18030E 26253.51943550 .00000068 00000+0 17348-4 0 9999 2 43253 86.3908 254.7114 0002094 84.4289 275.7146 14.34217635442353
UTC large
Height (km)
Speed (km/s)
/
Latitude / Longitude
Inclination (degrees)
Orbital Period (minutes)
Azimuth
Elevation
Range (km)
Doppler Factor

Next 0 passes for location: London (51.5072 / 0.1276)

No passes found over London.
IRIDIUM 145